Weather History for Salt Lake City, UT

Change the Weather History Date:

Sunday, February 12, 2012

  Actual Average Record
Temperature  
Mean Temperature 38 °F 33 °F  
Max Temperature 42 °F 42 °F 61 °F (1970)
Min Temperature 33 °F 24 °F -4 °F (2004)
Degree Days  
Heating Degree Days 27 32  
Month to date heating degree days 327 398  
Since 1 July heating degree days 3513 3792  
Cooling Degree Days 0 0  
Month to date cooling degree days 0 0  
Year to date cooling degree days 0 0  
Moisture  
Dew Point 33 °F    
Average Humidity 88    
Maximum Humidity 100    
Minimum Humidity 76    
Precipitation  
Precipitation 0.39 in 0.05 in 0.64 in (1952)
Month to date precipitation 0.47 0.50  
Year to date precipitation 2.26 1.75  
Snow  
Snow 0.30 in 0.40 in 7.70 in (1952)
Month to date snowfall 0.8 4.7  
Since 1 July snowfall 13.3 39.4  
Snow Depth 0.00 in    
Sea Level Pressure  
Sea Level Pressure 29.80 in    
Wind  
Wind Speed 8 mph (NW)    
Max Wind Speed 16 mph    
Max Gust Speed 21 mph    
Visibility 8 miles    
Events Rain , Snow    
T = Trace of Precipitation, MM = Missing Value Source: NWS Daily Summary

Daily Weather History Graph

Daily Weather History Graph

Search for Another Location

Airport:

Trip Planner

Search our weather history database for the weather conditions in past years. The results will help you decide how hot, cold, wet, or windy it might be!

Date:

Astronomy

Feb. 12, 2012 Rise Set
Actual Time 7:26 AM MST 5:58 PM MST
Civil Twilight 6:57 AM MST 6:26 PM MST
Nautical Twilight 6:25 AM MST 6:59 PM MST
Astronomical Twilight 5:53 AM MST 7:30 PM MST
Moon No Moon Rise 9:44 AM MST (2/12)
Length of Visible Light 11h 28m
Length of Day
10h 32m
Waning Gibbous, 71% of the Moon is Illuminated
Feb 12
Waning Gibbous
Feb 14
Last Quarter
Feb 21
New
Feb 29
First Quarter
Mar 8
Full

Hourly Weather History & Observations

Time (MST) Temp. Windchill Dew Point Humidity Pressure Visibility Wind Dir Wind Speed Gust Speed Precip Events Conditions
12:53 AM 39.9 °F 33.9 °F 35.1 °F 83% 29.81 in 10.0 mi SW 9.2 mph - N/A   Mostly Cloudy
1:53 AM 42.1 °F 39.2 °F 35.1 °F 76% 29.78 in 10.0 mi East 4.6 mph - N/A   Mostly Cloudy
2:53 AM 39.0 °F 34.0 °F 33.1 °F 79% 29.78 in 10.0 mi WNW 6.9 mph - N/A   Mostly Cloudy
3:53 AM 39.0 °F 36.8 °F 33.1 °F 79% 29.78 in 10.0 mi NNE 3.5 mph - 0.00 in   Overcast
4:53 AM 39.0 °F 36.8 °F 34.0 °F 82% 29.77 in 10.0 mi NNE 3.5 mph - N/A   Overcast
5:53 AM 37.9 °F 32.1 °F 34.0 °F 86% 29.77 in 10.0 mi North 8.1 mph - N/A   Overcast
6:53 AM 37.9 °F 30.5 °F 34.0 °F 86% 29.77 in 8.0 mi NNW 11.5 mph - 0.00 in   Overcast
7:20 AM 37.4 °F 29.8 °F 33.8 °F 87% 29.78 in 10.0 mi NNW 11.5 mph - N/A   Overcast
7:53 AM 37.9 °F 30.0 °F 34.0 °F 86% 29.78 in 7.0 mi NW 12.7 mph - 0.00 in Rain Light Rain
8:53 AM 37.0 °F 28.9 °F 33.1 °F 86% 29.79 in 3.0 mi NNW 12.7 mph - 0.05 in Rain Rain
9:11 AM 35.6 °F 29.9 °F 32.0 °F 87% 29.80 in 2.0 mi North 6.9 mph - 0.03 in Snow Light Snow
9:19 AM 33.8 °F 27.7 °F 30.2 °F 87% 29.80 in 1.2 mi North 6.9 mph - 0.05 in Snow Light Snow
9:49 AM 33.8 °F 30.8 °F 30.2 °F 87% 29.81 in 0.8 mi North 3.5 mph - 0.13 in Snow Light Snow
9:53 AM 33.1 °F - 30.9 °F 92% 29.81 in 0.8 mi Calm Calm - 0.14 in Snow Light Snow
10:08 AM 33.8 °F 29.6 °F 32.0 °F 93% 29.81 in 1.0 mi WNW 4.6 mph - 0.03 in Snow Light Snow
10:16 AM 33.8 °F 27.0 °F 32.0 °F 93% 29.81 in 2.5 mi NW 8.1 mph - 0.05 in Snow Light Snow
10:26 AM 35.6 °F 28.6 °F 32.0 °F 87% 29.81 in 3.0 mi NW 9.2 mph - 0.06 in Rain Rain
10:34 AM 35.6 °F 27.5 °F 33.8 °F 93% 29.81 in 3.0 mi NW 11.5 mph - 0.07 in Rain Rain
10:53 AM 36.0 °F 29.6 °F 33.1 °F 89% 29.80 in 6.0 mi WNW 8.1 mph - 0.10 in Rain Light Rain
11:53 AM 37.9 °F 30.9 °F 34.0 °F 86% 29.79 in 10.0 mi NW 10.4 mph - 0.01 in Rain Light Rain
12:21 PM 37.4 °F 30.3 °F 33.8 °F 87% 29.80 in 10.0 mi NW 10.4 mph - 0.00 in Rain Light Rain
12:51 PM 37.4 °F 29.8 °F 33.8 °F 87% 29.79 in 9.0 mi NW 11.5 mph - 0.02 in Rain Light Rain
12:53 PM 37.9 °F 30.9 °F 34.0 °F 86% 29.78 in 10.0 mi NW 10.4 mph - 0.02 in Rain Light Rain
1:09 PM 37.4 °F 31.4 °F 35.6 °F 93% 29.79 in 7.0 mi NW 8.1 mph - 0.01 in Rain Light Rain
1:20 PM 37.4 °F 32.1 °F 35.6 °F 93% 29.78 in 6.0 mi WNW 6.9 mph - 0.01 in Rain Light Rain
1:32 PM 37.4 °F 32.8 °F 35.6 °F 93% 29.78 in 10.0 mi WNW 5.8 mph - 0.02 in Rain Light Rain
1:53 PM 37.9 °F 30.5 °F 34.0 °F 86% 29.77 in 10.0 mi West 11.5 mph - 0.02 in   Overcast
2:53 PM 39.0 °F 31.4 °F 34.0 °F 82% 29.77 in 10.0 mi West 12.7 mph 17.3 mph 0.00 in Rain Light Rain
3:53 PM 37.9 °F 29.6 °F 34.0 °F 86% 29.78 in 10.0 mi West 13.8 mph - 0.01 in Rain Light Rain
4:30 PM 37.4 °F 30.3 °F 33.8 °F 87% 29.80 in 10.0 mi West 10.4 mph - 0.01 in Rain Light Rain
4:53 PM 37.0 °F 28.9 °F 33.1 °F 86% 29.80 in 10.0 mi West 12.7 mph - 0.01 in Rain Light Rain
4:59 PM 37.4 °F 30.8 °F 33.8 °F 87% 29.80 in 9.0 mi West 9.2 mph - 0.01 in Rain Light Rain
5:53 PM 37.0 °F 32.4 °F 34.0 °F 89% 29.80 in 10.0 mi West 5.8 mph - 0.02 in Rain Light Rain
6:25 PM 37.4 °F - 33.8 °F 87% 29.81 in 10.0 mi Calm Calm - 0.01 in Rain Light Rain
6:53 PM 36.0 °F 32.1 °F 33.1 °F 89% 29.82 in 10.0 mi ESE 4.6 mph - 0.01 in Rain Light Rain
7:20 PM 35.6 °F 31.7 °F 32.0 °F 87% 29.82 in 9.0 mi SE 4.6 mph - 0.00 in   Overcast
7:53 PM 34.0 °F 29.8 °F 33.1 °F 96% 29.80 in 10.0 mi SE 4.6 mph - 0.00 in   Overcast
8:53 PM 35.1 °F 31.0 °F 33.1 °F 92% 29.80 in 10.0 mi SSW 4.6 mph - N/A   Overcast
9:53 PM 35.1 °F 31.0 °F 33.1 °F 92% 29.84 in 10.0 mi ESE 4.6 mph - N/A   Mostly Cloudy
10:53 PM 34.0 °F 28.8 °F 32.0 °F 92% 29.85 in 10.0 mi SE 5.8 mph - N/A   Mostly Cloudy
11:53 PM 35.1 °F 28.6 °F 33.1 °F 92% 29.83 in 8.0 mi ESE 8.1 mph - N/A   Mostly Cloudy